Tracking 28790 objects as of 19-Apr-2024
HD Live streaming from Space Station
objects crossing your sky now

FENGYUN 1C DEB

Track FENGYUN 1C DEB now!
10-day predictions


NORAD ID: 46992
Int'l Code: 1999-025EZS
Perigee: 850.6 km
Apogee: 952.3 km
Inclination: 98.9 °
Period: 102.9 minutes
Semi major axis: 7272 km
RCS: Unknown
Launch date: May 10, 1999
Source: People's Republic of China (PRC)
Launch site: Taiyaun Space Center, China (TSC)

Note: This is SATELLITE DEBRIS
Your satellite tracking list
Your tracking list is empty




NASA's NSSDC Master Catalog

Two Line Element Set (TLE):
1 46992U 99025EZS 24106.70339865  .00000925  00000-0  64549-3 0  9996
2 46992  98.8539 105.5185 0069945  48.7805 311.9360 13.99843434524758
Source of the keplerian elements: AFSPC